Temperature
12 12 12 12 12 12 12 12 12 12 12 12 12 11 11 11 11 11 11 11 11 11 11 11 11 11 11 11 11 11 11 11 11 11 10 10 10 10 10 10 10 10 10
12 12 12 12 12 12 12 11 12 11 11 11 11 11 11 11 11 11 11 11 11 11 11 11 11 11 11 11 11 11 11 11 10 10 10 10 10 10 10 10 10 10 10
11 12 12 12 11 11 11 11 11 11 11 11 11 11 11 11 11 11 11 11 11 11 10 10 10 11 11 11 11 10 10 10 10 10 10 10 10 10 10 10 9 9 9
11 11 11 11 11 11 11 11 11 11 11 11 11 11 11 11 10 11 11 11 10 10 10 10 10 10 10 10 10 10 10 10 10 10 10 10 10 10 9 9 9 9 9
10 10 11 11 11 11 11 11 11 11 11 10 10 10 10 10 10 10 10 10 10 10 10 10 10 10 10 10 10 10 10 10 10 10 10 9 9 9 9 9 9 9 9
10 10 10 10 10 10 10 10 10 10 10 10 10 10 10 10 10 10 10 10 10 10 10 10 10 10 10 10 10 10 10 10 10 9 9 9 9 9 9 9 9 8 8
10 10 10 10 10 10 10 10 10 10 10 10 10 10 9 10 10 10 10 10 10 10 10 10 10 10 10 10 9 9 9 9 9 9 9 9 9 9 9 8 8 8 8
9 9 9 9 9 9 9 10 10 10 10 10 10 10 9 9 9 9 9 9 9 9 9 9 9 9 9 9 9 9 9 9 9 9 9 9 9 8 8 8 8 8 8
9 9 9 9 9 9 9 9 9 9 10 9 9 10 9 9 9 9 9 9 9 9 9 9 9 9 9 9 9 9 9 9 9 9 8 8 8 8 8 8 8 7 7
9 9 9 9 9 9 9 9 9 9 9 9 9 9 9 9 9 9 9 9 9 9 9 9 9 9 9 9 9 9 9 9 9 8 8 8 8 8 8 8 7 7 7
8 8 8 8 8 8 9 9 9 9 9 9 9 9 9 9 9 9 9 9 9 9 9 9 9 9 9 8 8 8 8 8 8 8 8 8 8 8 7 7 7 7 7
8 8 8 8 8 8 8 8 8 8 9 9 9 9 9 9 9 9 9 9 9 9 9 9 9 8 8 8 8 8 8 8 8 8 8 8 8 7 7 7 7 7 7
7 7 7 8 8 8 8 8 8 8 8 8 8 8 8 8 9 9 9 9 8 8 8 8 8 8 8 8 8 8 8 8 8 8 8 7 7 7 7 7 7 7 7
6 6 7 7 7 7 7 7 8 8 8 8 8 8 8 8 8 8 8 8 8 8 8 8 8 8 8 8 8 8 8 8 7 7 7 7 7 7 7 7 7 6 6
6 6 6 7 7 7 7 7 7 7 8 8 8 8 8 8 8 8 8 8 8 8 8 8 8 8 8 8 7 7 7 7 7 7 7 7 7 7 6 6 6 6 6
5 5 6 6 6 6 7 7 7 7 7 7 7 7 7 7 7 7 7 7 7 7 7 8 8 8 8 7 7 7 7 7 7 7 7 7 6 6 6 6 6 6 6
4 4 5 5 6 6 6 6 7 7 7 7 7 7 7 7 7 7 7 7 7 7 7 7 7 7 7 7 7 7 7 7 7 6 6 6 6 6 6 5 5 5 5
3 4 4 5 5 5 6 6 6 6 6 7 7 7 7 7 7 7 7 7 7 7 7 7 7 7 7 6 6 6 6 6 6 6 6 6 5 5 5 5 5 5 5
3 3 4 4 4 5 5 5 5 6 6 6 6 6 6 6 6 7 7 7 7 7 6 6 7 6 6 6 6 6 6 6 6 6 5 5 5 5 5 5 4 4 4
2 3 3 3 4 4 4 5 5 5 5 5 5 5 6 6 6 6 6 6 6 6 6 6 6 6 6 6 6 6 5 5 5 5 5 5 5 4 4 4 4 4 4
1 2 2 2 3 3 3 4 4 4 4 5 5 5 5 5 5 5 5 6 6 6 5 5 5 5 5 5 5 5 5 5 5 4 4 4 4 4 4 4 4 3 3
0 1 1 1 2 2 3 3 3 3 4 4 4 4 5 5 5 5 5 5 5 5 5 5 5 5 5 5 5 4 4 4 4 4 4 4 4 4 4 3 3 3 3
-0 -0 0 1 1 2 2 2 2 2 3 3 3 4 4 4 4 4 4 4 4 4 4 4 4 4 4 4 4 4 4 3 3 3 3 3 3 3 3 3 3 2 2
-1 -1 -0 0 0 1 1 1 1 1 2 2 3 3 3 3 3 4 4 4 4 4 4 4 4 4 4 4 4 3 3 3 3 3 3 3 3 3 3 2 2 2 2
-2 -1 -1 -1 -0 0 0 0 1 1 1 2 2 2 2 3 3 3 3 3 3 3 3 3 3 3 3 3 3 3 3 2 2 2 2 2 2 2 2 2 2 2 1
-3 -2 -2 -1 -1 -1 -0 -0 -0 -0 0 1 1 1 2 2 2 2 2 2 2 3 3 2 2 2 2 2 2 2 2 2 2 2 2 1 1 1 1 1 1 1 1
Wind_Speed
4 5 5 6 7 9 8 8 8 8 8 7 7 7 7 7 7 7 6 6 6 6 7 7 8 8 8 8 8 8 8 8 8 8 9 9 8 8 8 8 9 9 9
6 5 5 5 6 8 8 8 8 7 6 6 5 6 6 6 6 6 6 6 5 6 6 7 7 7 7 7 7 8 8 8 8 8 8 7 7 7 7 7 7 7 8
6 6 5 5 6 8 9 8 8 7 5 5 4 4 5 5 6 5 6 5 5 5 5 5 6 6 6 6 6 7 7 8 8 7 7 6 6 6 5 6 6 6 6
7 6 5 4 7 8 8 6 5 4 3 3 3 2 3 4 5 5 5 5 5 4 4 4 4 5 5 5 5 6 6 6 6 6 5 5 5 5 5 5 5 4 5
7 6 5 5 7 7 6 5 4 4 4 4 3 2 2 2 3 4 4 4 4 4 4 3 3 3 3 3 4 5 5 5 5 4 3 3 3 3 3 3 3 3 4
6 6 5 6 7 5 4 4 5 3 4 5 4 3 1 2 2 2 2 3 3 4 4 3 2 2 1 2 3 3 3 4 3 3 2 1 1 1 1 1 1 2 2
6 5 4 5 6 5 5 5 4 5 3 3 3 2 2 1 1 1 1 2 2 2 3 3 2 2 1 1 2 2 2 2 2 2 1 1 1 1 0 0 1 1 2
6 6 5 4 5 4 5 5 5 4 3 3 3 3 1 1 1 0 1 1 1 2 2 2 2 2 1 2 1 2 1 1 1 1 1 0 0 1 1 1 1 2 3
4 5 6 5 5 5 6 5 6 6 4 3 2 3 3 3 1 1 1 1 2 1 1 2 2 2 2 2 1 1 1 1 1 1 1 1 1 1 1 1 1 1 1
3 4 5 5 5 5 5 5 5 4 6 5 2 1 2 3 3 1 1 1 2 2 2 2 2 3 3 2 2 2 2 2 2 2 2 2 2 2 2 1 1 1 1
3 3 4 4 5 5 5 6 5 4 4 5 4 3 2 1 2 3 2 2 1 2 2 3 3 4 4 4 3 3 3 3 4 4 3 3 2 2 2 2 1 1 1
2 3 3 4 5 5 6 6 6 5 5 5 4 4 4 3 3 3 3 3 2 2 1 2 3 5 5 4 4 3 3 4 4 4 4 4 3 3 2 2 2 1 2
2 3 3 3 4 4 5 6 6 5 5 6 6 4 4 3 3 3 3 2 2 1 1 1 3 4 5 4 4 4 4 5 5 5 5 3 3 2 2 2 2 1 2
3 3 4 4 4 5 5 5 5 5 5 6 6 6 4 4 4 4 4 4 2 1 2 3 1 3 4 4 4 5 4 5 5 5 4 3 2 2 2 2 2 2 1
3 3 3 4 3 4 5 5 4 5 5 6 6 6 5 4 4 4 4 4 5 4 4 4 2 1 3 3 4 4 4 4 4 4 4 3 3 2 2 2 2 2 2
3 3 3 3 4 4 5 5 4 4 5 5 5 6 5 4 4 4 4 4 4 4 4 3 3 2 2 3 3 4 4 3 3 4 4 4 4 3 3 3 3 2 2
3 3 4 4 4 4 5 5 5 5 5 4 5 6 6 5 5 4 4 4 4 3 3 2 1 1 2 2 2 2 3 3 3 4 4 4 4 4 4 3 3 3 3
3 3 3 3 4 4 4 4 5 5 5 5 6 6 6 5 5 5 5 5 5 4 4 3 2 2 2 2 2 2 1 2 3 4 4 3 3 4 4 4 4 3 3
3 3 2 2 3 4 4 4 4 4 4 4 5 6 6 5 5 4 5 5 4 4 3 3 3 2 1 1 1 0 0 0 1 2 3 3 3 3 4 5 4 4 3
3 3 3 3 3 3 3 3 3 4 4 4 4 5 6 6 6 6 5 5 5 4 3 3 2 2 1 1 2 1 1 0 1 1 2 3 3 3 4 5 5 4 4
4 3 3 3 3 3 3 3 3 3 4 4 3 4 5 6 7 6 5 5 6 5 4 3 3 2 2 2 2 2 2 1 1 1 1 1 2 2 3 5 5 5 5
4 3 3 3 3 3 4 4 3 3 4 4 4 4 4 5 5 6 6 6 7 6 6 5 3 4 4 3 3 2 2 1 2 1 1 2 2 2 3 5 6 6 6
4 4 4 4 4 4 4 5 5 3 3 4 4 4 4 4 5 4 4 5 6 7 7 6 5 5 5 5 5 3 3 3 3 2 1 2 1 2 4 5 5 6 6
4 4 4 4 4 4 5 4 4 3 3 3 4 5 5 5 5 5 4 4 3 4 5 4 5 5 5 5 6 5 4 2 0 0 2 2 2 2 2 4 5 6 6
4 4 4 4 4 4 5 4 4 3 3 3 4 4 4 5 5 6 5 5 4 3 2 3 4 4 5 6 6 4 3 2 2 2 1 2 1 1 2 2 4 5 5
4 4 4 4 4 4 5 5 5 3 3 3 3 4 5 5 6 7 6 6 5 4 3 2 2 2 3 5 7 6 5 4 2 2 2 2 1 0 2 2 1 2 3
Wind_Direction
140 139 136 136 135 133 129 124 122 121 120 121 120 116 111 107 104 97 93 99 109 114 117 120 117 112 107 107 106 105 103 101 95 93 90 87 83 79 75 76 75 71 69
147 146 143 141 140 141 138 134 132 127 124 125 119 121 122 117 111 105 99 93 98 104 113 115 116 113 109 108 106 102 99 97 96 94 92 87 84 80 76 77 75 70 68
153 152 149 152 153 148 138 128 122 118 118 117 116 119 121 119 117 113 111 105 97 92 104 112 114 116 113 108 110 111 105 96 92 89 90 86 82 74 75 73 70 70 67
158 153 154 160 158 151 143 134 129 120 119 123 128 122 118 118 119 121 121 118 111 99 91 98 105 110 117 118 118 118 115 107 100 95 91 89 81 71 70 68 67 67 62
165 158 162 163 161 151 146 147 140 138 138 132 125 115 109 112 121 126 123 125 124 118 108 96 98 102 114 135 129 128 126 119 113 109 103 101 86 72 73 71 65 67 59
171 162 160 165 161 156 159 155 147 137 142 143 124 95 76 95 101 118 131 131 132 136 133 116 104 101 109 137 140 136 134 136 131 127 131 137 129 98 83 64 53 60 49
172 168 163 167 167 172 175 162 143 141 141 139 115 92 38 58 102 109 118 126 126 136 139 136 132 115 87 131 141 133 132 140 145 148 174 194 207 212 214 302 323 27 37
175 177 172 179 178 172 171 170 153 150 154 163 141 132 119 353 328 141 131 157 148 137 145 152 153 150 127 107 130 124 140 173 179 171 190 247 281 246 266 301 30 58 58
181 184 182 180 181 179 186 185 176 166 170 189 174 155 158 198 223 287 218 190 184 175 193 175 173 176 169 156 157 193 187 210 209 201 207 242 263 283 360 34 26 34 27
198 190 182 180 183 186 191 194 192 177 168 181 174 137 142 150 157 183 273 238 212 207 215 211 208 199 196 195 211 223 222 227 227 228 227 244 257 260 264 278 341 6 357
212 198 184 183 189 195 197 198 195 191 179 180 175 158 128 109 127 157 202 238 251 236 223 226 218 207 207 207 219 231 229 235 239 246 245 256 272 274 257 255 254 286 313
236 218 199 195 199 200 200 203 199 197 197 185 181 173 167 166 172 166 182 205 226 248 241 238 217 209 208 209 224 235 237 242 245 248 255 260 264 264 249 241 250 260 280
256 240 220 207 205 207 207 203 200 201 201 193 190 192 189 183 166 164 159 175 202 251 259 247 226 213 205 205 226 229 235 241 247 246 244 249 252 243 238 239 254 271 283
260 247 230 218 218 210 208 205 207 206 204 201 198 192 193 192 179 175 167 157 166 230 243 244 240 214 203 199 218 216 233 239 241 240 236 235 239 244 237 242 249 258 277
276 263 244 231 221 217 213 209 218 212 203 205 203 200 201 198 191 185 174 171 168 195 226 225 216 216 204 197 206 207 223 233 231 224 223 223 222 224 223 226 232 249 266
284 275 255 244 232 222 217 214 220 214 205 207 202 198 203 202 193 189 188 187 181 181 208 212 213 213 201 201 204 199 217 220 214 218 218 214 213 219 225 228 236 244 256
279 261 255 244 236 229 220 217 219 213 210 211 202 202 209 197 195 193 187 185 188 176 199 219 204 217 196 193 189 196 206 205 213 216 216 220 218 216 218 226 233 236 248
285 270 258 247 242 235 228 224 221 214 212 215 210 203 209 202 200 197 192 193 195 186 184 205 207 198 203 195 184 188 213 217 214 217 220 225 220 218 220 222 228 235 244
292 290 269 255 253 243 233 233 227 216 214 218 216 206 204 198 206 203 196 196 195 190 183 186 198 194 197 179 156 187 215 256 243 232 228 225 227 228 226 224 226 232 234
287 288 279 263 256 255 243 234 233 222 213 219 225 213 203 201 205 201 200 199 189 183 175 173 184 184 185 168 151 184 237 235 275 272 240 234 225 228 233 227 228 231 235
298 288 282 277 265 253 251 240 231 225 217 217 226 221 212 206 206 204 202 195 186 185 177 180 184 185 187 173 194 189 209 237 267 257 251 260 234 236 244 237 233 237 240
299 300 291 280 271 260 265 257 250 227 225 216 222 223 215 207 203 205 206 198 188 185 187 188 195 200 206 198 185 184 177 194 255 226 196 254 225 232 243 240 236 239 240
291 288 284 276 269 264 271 265 259 239 232 224 221 219 218 213 200 199 203 203 204 201 194 191 195 201 197 194 182 187 194 207 229 210 189 244 225 239 245 243 243 244 245
282 276 277 273 273 271 273 268 271 245 237 236 232 223 213 210 208 192 186 195 209 212 208 197 201 203 199 191 190 190 191 180 86 230 183 233 242 245 262 256 247 245 246
299 291 280 274 273 272 271 269 273 244 240 243 243 230 211 210 209 191 184 191 205 214 212 199 205 204 196 186 171 145 146 163 240 240 200 202 237 275 276 265 250 244 242
294 298 294 282 272 269 268 264 259 239 237 240 247 232 219 217 211 199 193 191 203 204 181 178 177 169 169 176 175 173 174 182 201 227 202 179 202 194 288 273 264 253 258
Height
1542 1544 1545 1547 1549 1551 1553 1555 1556 1558 1560 1561 1563 1564 1566 1567 1568 1569 1570 1571 1572 1572 1573 1573 1574 1574 1574 1574 1575 1575 1575 1576 1576 1576 1576 1576 1576 1576 1577 1576 1577 1576 1576
1540 1542 1544 1546 1548 1550 1552 1554 1555 1557 1559 1560 1562 1563 1565 1566 1567 1568 1569 1570 1571 1572 1572 1573 1574 1574 1574 1575 1575 1575 1575 1576 1576 1576 1576 1576 1576 1576 1577 1577 1576 1576 1576
1538 1540 1542 1545 1547 1549 1551 1553 1554 1556 1558 1559 1561 1562 1564 1565 1566 1567 1568 1569 1570 1571 1572 1573 1573 1574 1574 1574 1575 1575 1575 1576 1576 1576 1576 1576 1576 1576 1576 1576 1576 1576 1576
1536 1538 1540 1543 1545 1547 1549 1551 1553 1554 1556 1558 1559 1561 1562 1564 1565 1566 1567 1568 1569 1570 1571 1572 1573 1573 1574 1574 1574 1574 1575 1575 1576 1576 1576 1576 1576 1576 1576 1576 1576 1575 1575
1534 1536 1538 1540 1543 1545 1547 1549 1551 1553 1554 1556 1558 1560 1561 1562 1564 1565 1566 1567 1568 1569 1570 1571 1572 1572 1573 1573 1573 1574 1574 1575 1575 1575 1575 1575 1575 1575 1575 1575 1575 1575 1575
1531 1534 1536 1538 1540 1542 1544 1547 1549 1551 1553 1555 1556 1558 1559 1561 1562 1563 1565 1566 1567 1568 1569 1570 1570 1571 1572 1572 1573 1573 1574 1574 1574 1574 1574 1574 1574 1574 1574 1574 1574 1574 1574
1529 1531 1533 1535 1537 1539 1542 1544 1546 1548 1550 1552 1554 1556 1557 1559 1560 1561 1563 1564 1565 1566 1567 1568 1569 1570 1570 1571 1572 1572 1572 1573 1573 1573 1573 1573 1573 1573 1573 1573 1573 1573 1573
1525 1527 1530 1532 1534 1536 1539 1541 1543 1545 1547 1549 1551 1553 1555 1557 1558 1559 1560 1562 1563 1564 1565 1566 1567 1568 1568 1569 1570 1571 1571 1571 1572 1572 1572 1572 1572 1572 1572 1572 1571 1571 1571
1521 1524 1526 1528 1531 1533 1535 1537 1540 1542 1544 1546 1548 1550 1552 1552 1554 1556 1557 1559 1560 1562 1563 1564 1565 1566 1566 1567 1568 1569 1569 1570 1570 1570 1570 1570 1570 1570 1570 1570 1570 1570 1570
1517 1520 1522 1525 1527 1529 1532 1534 1536 1539 1541 1542 1545 1547 1549 1550 1551 1552 1554 1556 1557 1558 1560 1561 1562 1563 1564 1565 1565 1566 1567 1567 1568 1568 1568 1568 1568 1568 1568 1568 1568 1568 1568
1513 1515 1518 1520 1523 1525 1528 1530 1533 1535 1537 1539 1541 1543 1545 1546 1548 1549 1550 1552 1554 1555 1556 1558 1559 1560 1561 1562 1563 1563 1564 1565 1565 1565 1566 1566 1566 1566 1566 1565 1565 1565 1565
1509 1511 1514 1516 1519 1521 1524 1526 1529 1531 1533 1536 1538 1540 1541 1543 1544 1546 1547 1548 1550 1552 1553 1554 1555 1556 1557 1558 1559 1560 1561 1561 1562 1562 1563 1563 1563 1563 1563 1563 1563 1563 1563
1504 1507 1509 1511 1514 1517 1520 1522 1525 1527 1529 1531 1533 1536 1538 1540 1542 1543 1545 1545 1547 1548 1549 1551 1552 1553 1554 1555 1556 1556 1557 1558 1559 1559 1560 1560 1560 1560 1560 1560 1560 1560 1560
1500 1503 1505 1508 1509 1512 1515 1518 1520 1523 1525 1527 1529 1531 1534 1536 1538 1540 1541 1543 1543 1545 1546 1547 1548 1549 1550 1551 1552 1553 1554 1554 1555 1556 1556 1557 1557 1557 1557 1557 1557 1557 1557
1497 1499 1501 1503 1505 1508 1510 1513 1516 1518 1520 1522 1525 1527 1529 1531 1533 1535 1537 1539 1541 1541 1541 1543 1544 1545 1547 1548 1549 1550 1550 1551 1552 1552 1553 1553 1553 1553 1554 1554 1554 1554 1554
1493 1495 1496 1498 1500 1503 1505 1508 1510 1512 1515 1517 1519 1522 1524 1526 1528 1530 1532 1534 1536 1537 1538 1539 1540 1542 1543 1544 1545 1546 1547 1547 1548 1548 1549 1549 1549 1550 1550 1550 1550 1550 1550
1488 1490 1492 1493 1495 1498 1500 1502 1505 1507 1509 1511 1514 1516 1518 1521 1523 1525 1527 1529 1531 1532 1533 1534 1536 1538 1539 1540 1541 1542 1543 1543 1544 1544 1545 1545 1546 1546 1546 1547 1547 1546 1546
1483 1485 1486 1488 1490 1492 1495 1497 1499 1501 1504 1506 1508 1511 1513 1515 1517 1519 1521 1523 1525 1527 1529 1529 1531 1533 1534 1536 1537 1538 1538 1539 1539 1540 1540 1541 1541 1542 1542 1542 1542 1542 1542
1478 1480 1481 1483 1485 1487 1489 1491 1493 1496 1498 1500 1503 1505 1507 1510 1512 1514 1516 1518 1520 1522 1524 1525 1526 1527 1529 1531 1532 1533 1533 1534 1535 1535 1536 1536 1537 1537 1538 1538 1538 1538 1538
1474 1475 1476 1478 1480 1482 1483 1486 1488 1490 1492 1495 1497 1499 1502 1504 1506 1509 1511 1513 1515 1516 1518 1519 1521 1522 1524 1525 1526 1527 1528 1529 1530 1531 1531 1532 1532 1532 1533 1533 1533 1533 1533
1469 1470 1471 1472 1474 1476 1478 1480 1482 1484 1486 1489 1492 1494 1496 1498 1501 1503 1505 1507 1509 1511 1512 1514 1515 1517 1518 1519 1521 1522 1523 1524 1525 1526 1526 1527 1527 1527 1528 1528 1528 1528 1528
1465 1466 1466 1468 1469 1471 1473 1475 1477 1479 1481 1484 1486 1488 1490 1493 1495 1497 1499 1501 1503 1505 1506 1508 1509 1511 1512 1514 1516 1517 1518 1519 1519 1521 1521 1522 1522 1523 1523 1523 1523 1523 1523
1461 1462 1463 1464 1465 1466 1468 1470 1472 1475 1476 1478 1480 1482 1484 1487 1489 1491 1494 1496 1497 1499 1501 1503 1504 1506 1507 1509 1510 1512 1513 1514 1514 1516 1517 1516 1517 1517 1518 1518 1518 1519 1519
1456 1457 1458 1459 1460 1461 1464 1466 1468 1470 1471 1473 1475 1477 1479 1481 1483 1485 1488 1490 1492 1493 1495 1497 1499 1501 1503 1504 1506 1507 1508 1509 1510 1511 1512 1512 1512 1512 1513 1513 1513 1513 1513
1452 1453 1453 1454 1455 1457 1459 1461 1463 1464 1466 1467 1469 1471 1473 1475 1477 1480 1482 1484 1486 1488 1490 1492 1494 1496 1498 1499 1501 1502 1503 1504 1504 1505 1507 1507 1506 1507 1507 1507 1508 1508 1508
1448 1449 1449 1450 1451 1452 1454 1456 1458 1459 1460 1462 1464 1466 1468 1470 1472 1474 1476 1478 1480 1482 1484 1487 1489 1490 1492 1494 1495 1497 1498 1499 1499 1500 1501 1502 1502 1502 1502 1501 1502 1503 1503